Time,TemperatureF,DewpointF,PressureIn,WindDirection,WindDirectionDegrees,WindSpeedMPH,WindSpeedGustMPH,Humidity,HourlyPrecipIn,Conditions,Clouds,dailyrainin,SoftwareType,DateUTC
2013-03-20 00:00:00,34.5,33.4,29.66,ENE,68,13.0,13.0,96,0.01,,,0.74,meteohub,2013-03-20 00:00:00,
2013-03-20 00:05:00,34.5,33.4,29.69,ENE,68,10.0,13.0,96,0.01,,,0.00,meteohub,2013-03-20 00:05:00,
2013-03-20 00:10:00,34.5,33.4,29.69,ENE,68,8.0,15.0,96,0.02,,,0.01,meteohub,2013-03-20 00:10:00,
2013-03-20 00:16:00,34.5,33.4,29.69,East,90,11.0,15.0,96,0.02,,,0.01,meteohub,2013-03-20 00:16:00,
2013-03-20 00:21:00,34.5,33.4,29.69,ENE,68,14.0,15.0,96,0.02,,,0.01,meteohub,2013-03-20 00:21:00,
2013-03-20 00:27:00,34.5,33.4,29.69,East,90,13.0,15.0,96,0.02,,,0.01,meteohub,2013-03-20 00:27:00,
2013-03-20 00:32:00,34.5,33.3,29.69,East,90,13.0,17.0,95,0.01,,,0.01,meteohub,2013-03-20 00:32:00,
2013-03-20 00:38:00,34.5,33.3,29.69,East,90,10.0,17.0,95,0.01,,,0.01,meteohub,2013-03-20 00:38:00,
2013-03-20 00:43:00,34.3,32.7,29.69,NE,45,10.0,17.0,94,0.01,,,0.01,meteohub,2013-03-20 00:43:00,
2013-03-20 00:49:00,34.3,32.7,29.69,East,90,9.0,17.0,94,0.01,,,0.01,meteohub,2013-03-20 00:49:00,
2013-03-20 00:54:00,34.5,32.9,29.69,East,90,14.0,17.0,94,0.01,,,0.01,meteohub,2013-03-20 00:54:00,
2013-03-20 00:59:00,34.5,32.9,29.69,East,90,8.0,17.0,94,0.01,,,0.01,meteohub,2013-03-20 00:59:00,
2013-03-20 01:05:00,34.5,32.9,29.69,East,90,6.0,17.0,94,0.01,,,0.01,meteohub,2013-03-20 01:05:00,
2013-03-20 01:10:00,34.5,32.9,29.69,ENE,68,9.0,14.0,94,0.01,,,0.01,meteohub,2013-03-20 01:10:00,
2013-03-20 01:15:00,34.5,32.9,29.69,East,90,11.0,11.0,94,0.00,,,0.01,meteohub,2013-03-20 01:15:00,
2013-03-20 01:20:00,34.5,32.9,29.69,ENE,68,11.0,11.0,94,0.00,,,0.01,meteohub,2013-03-20 01:20:00,
2013-03-20 01:26:00,34.5,32.7,29.69,ESE,112,10.0,13.0,93,0.00,,,0.01,meteohub,2013-03-20 01:26:00,
2013-03-20 01:31:00,34.5,32.7,29.69,East,90,12.0,13.0,93,0.00,,,0.01,meteohub,2013-03-20 01:31:00,
2013-03-20 01:36:00,34.5,32.7,29.69,East,90,10.0,13.0,93,0.00,,,0.01,meteohub,2013-03-20 01:36:00,
2013-03-20 01:42:00,34.5,32.7,29.69,ENE,68,11.0,14.0,93,0.00,,,0.01,meteohub,2013-03-20 01:42:00,
2013-03-20 01:48:00,34.7,32.9,29.69,East,90,9.0,14.0,93,0.00,,,0.01,meteohub,2013-03-20 01:48:00,
2013-03-20 01:53:00,34.7,32.9,29.69,East,90,6.0,14.0,93,0.00,,,0.01,meteohub,2013-03-20 01:53:00,
2013-03-20 01:58:00,34.5,32.4,29.69,East,90,6.0,13.0,92,0.00,,,0.01,meteohub,2013-03-20 01:58:00,
2013-03-20 02:04:00,34.5,32.4,29.69,East,90,8.0,12.0,92,0.00,,,0.01,meteohub,2013-03-20 02:04:00,
2013-03-20 02:09:00,34.5,32.4,29.69,ENE,68,8.0,12.0,92,0.00,,,0.01,meteohub,2013-03-20 02:09:00,
2013-03-20 02:14:00,34.5,32.4,29.69,East,90,11.0,12.0,92,0.00,,,0.01,meteohub,2013-03-20 02:14:00,
2013-03-20 02:20:00,34.3,32.0,29.69,ENE,68,10.0,11.0,91,0.00,,,0.01,meteohub,2013-03-20 02:20:00,
2013-03-20 02:25:00,34.3,31.6,29.69,ENE,68,11.0,12.0,90,0.00,,,0.01,meteohub,2013-03-20 02:25:00,
2013-03-20 02:30:00,34.2,31.5,29.69,ENE,68,10.0,13.0,90,0.00,,,0.01,meteohub,2013-03-20 02:30:00,
2013-03-20 02:35:00,34.0,31.1,29.69,ENE,68,8.0,13.0,89,0.00,,,0.01,meteohub,2013-03-20 02:35:00,
2013-03-20 02:41:00,34.0,31.1,29.69,NE,45,14.0,14.0,89,0.00,,,0.01,meteohub,2013-03-20 02:41:00,
2013-03-20 02:46:00,34.0,31.1,29.69,ENE,68,13.0,14.0,89,0.00,,,0.01,meteohub,2013-03-20 02:46:00,
2013-03-20 02:52:00,34.0,31.1,29.69,East,90,8.0,14.0,89,0.00,,,0.01,meteohub,2013-03-20 02:52:00,
2013-03-20 02:57:00,34.0,31.1,29.69,ENE,68,11.0,14.0,89,0.00,,,0.01,meteohub,2013-03-20 02:57:00,
2013-03-20 03:02:00,34.0,31.1,29.69,ENE,68,9.0,13.0,89,0.00,,,0.01,meteohub,2013-03-20 03:02:00,
2013-03-20 03:07:00,34.2,31.3,29.72,ENE,68,6.0,13.0,89,0.00,,,0.01,meteohub,2013-03-20 03:07:00,
2013-03-20 03:12:00,34.3,31.6,29.72,ENE,68,13.0,13.0,90,0.00,,,0.01,meteohub,2013-03-20 03:12:00,
2013-03-20 03:17:00,34.3,31.6,29.72,NE,45,10.0,13.0,90,0.00,,,0.01,meteohub,2013-03-20 03:17:00,
2013-03-20 03:22:00,34.3,31.6,29.69,East,90,10.0,13.0,90,0.00,,,0.01,meteohub,2013-03-20 03:22:00,
2013-03-20 03:27:00,34.3,32.0,29.69,NE,45,11.0,13.0,91,0.00,,,0.01,meteohub,2013-03-20 03:27:00,
2013-03-20 03:32:00,34.3,32.0,29.69,East,90,11.0,13.0,91,0.00,,,0.01,meteohub,2013-03-20 03:32:00,
2013-03-20 03:38:00,34.2,31.8,29.69,ENE,68,17.0,17.0,91,0.00,,,0.01,meteohub,2013-03-20 03:38:00,
2013-03-20 03:43:00,34.0,31.3,29.69,ENE,68,10.0,17.0,90,0.00,,,0.01,meteohub,2013-03-20 03:43:00,
2013-03-20 03:48:00,34.0,31.6,29.69,ENE,68,11.0,17.0,91,0.01,,,0.02,meteohub,2013-03-20 03:48:00,
2013-03-20 03:53:00,34.0,31.6,29.69,NE,45,7.0,17.0,91,0.01,,,0.02,meteohub,2013-03-20 03:53:00,
2013-03-20 03:58:00,34.0,31.6,29.69,East,90,13.0,13.0,91,0.01,,,0.02,meteohub,2013-03-20 03:58:00,
2013-03-20 04:00:00,33.8,31.5,29.69,ENE,68,11.0,15.0,91,0.01,,,0.02,meteohub,2013-03-20 04:00:00,
2013-03-20 04:01:00,33.8,31.5,29.69,NE,45,9.0,15.0,91,0.01,,,0.02,meteohub,2013-03-20 04:01:00,
2013-03-20 04:02:00,33.8,31.5,29.69,ENE,68,8.0,15.0,91,0.01,,,0.02,meteohub,2013-03-20 04:02:00,
2013-03-20 04:06:00,33.8,31.5,29.69,ENE,68,10.0,15.0,91,0.01,,,0.02,meteohub,2013-03-20 04:06:00,
2013-03-20 04:12:00,33.8,31.5,29.69,ENE,68,6.0,15.0,91,0.01,,,0.02,meteohub,2013-03-20 04:12:00,
2013-03-20 04:17:00,33.8,31.5,29.69,ENE,68,6.0,15.0,91,0.01,,,0.02,meteohub,2013-03-20 04:17:00,
2013-03-20 04:22:00,34.0,31.6,29.72,ENE,68,8.0,13.0,91,0.01,,,0.02,meteohub,2013-03-20 04:22:00,
2013-03-20 04:27:00,34.0,31.8,29.72,ENE,68,10.0,13.0,92,0.01,,,0.02,meteohub,2013-03-20 04:27:00,
2013-03-20 04:32:00,34.0,31.8,29.72,ENE,68,11.0,11.0,92,0.01,,,0.02,meteohub,2013-03-20 04:32:00,
2013-03-20 04:38:00,34.0,31.8,29.72,ENE,68,7.0,11.0,92,0.01,,,0.02,meteohub,2013-03-20 04:38:00,
2013-03-20 04:43:00,34.0,31.8,29.72,East,90,6.0,11.0,92,0.00,,,0.02,meteohub,2013-03-20 04:43:00,
2013-03-20 04:48:00,34.0,31.8,29.72,East,90,4.0,11.0,92,0.00,,,0.02,meteohub,2013-03-20 04:48:00,
2013-03-20 04:53:00,34.0,31.8,29.72,ENE,68,6.0,10.0,92,0.00,,,0.02,meteohub,2013-03-20 04:53:00,
2013-03-20 04:58:00,34.0,31.8,29.72,East,90,9.0,10.0,92,0.00,,,0.02,meteohub,2013-03-20 04:58:00,
2013-03-20 05:03:00,34.0,31.8,29.72,ENE,68,5.0,11.0,92,0.00,,,0.02,meteohub,2013-03-20 05:03:00,
2013-03-20 05:08:00,34.0,31.8,29.72,East,90,8.0,11.0,92,0.00,,,0.02,meteohub,2013-03-20 05:08:00,
2013-03-20 05:13:00,34.0,31.8,29.72,ENE,68,9.0,13.0,92,0.00,,,0.02,meteohub,2013-03-20 05:13:00,
2013-03-20 05:18:00,34.0,31.8,29.72,East,90,10.0,13.0,92,0.00,,,0.02,meteohub,2013-03-20 05:18:00,
2013-03-20 05:24:00,34.0,31.8,29.72,ENE,68,11.0,13.0,92,0.00,,,0.02,meteohub,2013-03-20 05:24:00,
2013-03-20 05:29:00,34.0,31.8,29.72,ENE,68,10.0,12.0,92,0.00,,,0.02,meteohub,2013-03-20 05:29:00,
2013-03-20 05:34:00,34.0,31.8,29.72,ENE,68,8.0,12.0,92,0.00,,,0.02,meteohub,2013-03-20 05:34:00,
2013-03-20 05:39:00,34.0,31.6,29.72,ENE,68,9.0,11.0,91,0.00,,,0.02,meteohub,2013-03-20 05:39:00,
2013-03-20 05:44:00,34.0,31.6,29.72,ENE,68,9.0,11.0,91,0.00,,,0.02,meteohub,2013-03-20 05:44:00,
2013-03-20 05:49:00,34.0,31.6,29.72,ENE,68,6.0,11.0,91,0.00,,,0.02,meteohub,2013-03-20 05:49:00,
2013-03-20 05:55:00,34.0,31.8,29.72,East,90,8.0,11.0,92,0.00,,,0.02,meteohub,2013-03-20 05:55:00,
2013-03-20 06:01:00,34.0,31.8,29.72,ENE,68,6.0,11.0,92,0.00,,,0.02,meteohub,2013-03-20 06:01:00,
2013-03-20 06:06:00,34.0,31.8,29.75,East,90,9.0,12.0,92,0.00,,,0.02,meteohub,2013-03-20 06:06:00,
2013-03-20 06:12:00,34.0,31.8,29.75,ENE,68,9.0,12.0,92,0.00,,,0.02,meteohub,2013-03-20 06:12:00,
2013-03-20 06:17:00,34.0,31.8,29.75,East,90,11.0,12.0,92,0.00,,,0.02,meteohub,2013-03-20 06:17:00,
2013-03-20 06:22:00,34.0,31.8,29.75,East,90,10.0,11.0,92,0.00,,,0.02,meteohub,2013-03-20 06:22:00,
2013-03-20 06:27:00,34.0,31.8,29.75,ESE,112,12.0,14.0,92,0.00,,,0.02,meteohub,2013-03-20 06:27:00,
2013-03-20 06:32:00,34.0,31.8,29.75,ESE,112,6.0,14.0,92,0.00,,,0.02,meteohub,2013-03-20 06:32:00,
2013-03-20 06:37:00,34.0,31.8,29.75,East,90,6.0,14.0,92,0.00,,,0.02,meteohub,2013-03-20 06:37:00,
2013-03-20 06:43:00,34.2,32.0,29.75,East,90,6.0,13.0,92,0.00,,,0.02,meteohub,2013-03-20 06:43:00,
2013-03-20 06:48:00,34.2,32.0,29.75,ENE,68,6.0,10.0,92,0.00,,,0.02,meteohub,2013-03-20 06:48:00,
2013-03-20 06:53:00,34.2,32.0,29.75,East,90,7.0,8.0,92,0.00,,,0.02,meteohub,2013-03-20 06:53:00,
2013-03-20 06:59:00,34.2,32.0,29.75,ENE,68,10.0,10.0,92,0.00,,,0.02,meteohub,2013-03-20 06:59:00,
2013-03-20 07:04:00,34.2,32.0,29.75,East,90,7.0,10.0,92,0.00,,,0.02,meteohub,2013-03-20 07:04:00,
2013-03-20 07:10:00,34.2,32.0,29.75,ENE,68,8.0,10.0,92,0.00,,,0.02,meteohub,2013-03-20 07:10:00,
2013-03-20 07:15:00,34.2,32.0,29.75,ENE,68,10.0,10.0,92,0.00,,,0.02,meteohub,2013-03-20 07:15:00,
2013-03-20 07:20:00,34.2,31.8,29.75,East,90,10.0,10.0,91,0.00,,,0.02,meteohub,2013-03-20 07:20:00,
2013-03-20 07:26:00,34.2,31.8,29.75,East,90,8.0,10.0,91,0.00,,,0.02,meteohub,2013-03-20 07:26:00,
2013-03-20 07:31:00,34.2,31.8,29.75,ENE,68,10.0,10.0,91,0.00,,,0.02,meteohub,2013-03-20 07:31:00,
2013-03-20 07:37:00,34.3,32.0,29.75,East,90,6.0,10.0,91,0.00,,,0.02,meteohub,2013-03-20 07:37:00,
2013-03-20 07:42:00,34.3,32.0,29.75,ENE,68,8.0,11.0,91,0.00,,,0.02,meteohub,2013-03-20 07:42:00,
2013-03-20 07:47:00,34.5,32.2,29.75,ENE,68,7.0,11.0,91,0.00,,,0.02,meteohub,2013-03-20 07:47:00,
2013-03-20 07:52:00,34.5,32.2,29.78,East,90,8.0,11.0,91,0.00,,,0.02,meteohub,2013-03-20 07:52:00,
2013-03-20 07:57:00,34.5,32.2,29.78,East,90,6.0,11.0,91,0.01,,,0.03,meteohub,2013-03-20 07:57:00,
2013-03-20 08:03:00,34.7,32.4,29.78,East,90,8.0,11.0,91,0.01,,,0.03,meteohub,2013-03-20 08:03:00,
2013-03-20 08:08:00,34.7,32.4,29.78,East,90,7.0,11.0,91,0.01,,,0.03,meteohub,2013-03-20 08:08:00,
2013-03-20 08:14:00,34.9,32.5,29.78,ENE,68,8.0,11.0,91,0.01,,,0.03,meteohub,2013-03-20 08:14:00,
2013-03-20 08:19:00,34.9,32.5,29.81,ENE,68,13.0,13.0,91,0.01,,,0.03,meteohub,2013-03-20 08:19:00,
2013-03-20 08:24:00,34.9,32.5,29.81,ENE,68,11.0,13.0,91,0.01,,,0.03,meteohub,2013-03-20 08:24:00,
2013-03-20 08:29:00,34.7,32.0,29.81,ENE,68,11.0,13.0,90,0.01,,,0.03,meteohub,2013-03-20 08:29:00,
2013-03-20 08:34:00,34.7,32.0,29.81,ENE,68,8.0,15.0,90,0.01,,,0.03,meteohub,2013-03-20 08:34:00,
2013-03-20 08:39:00,34.9,32.2,29.81,East,90,9.0,15.0,90,0.01,,,0.03,meteohub,2013-03-20 08:39:00,
2013-03-20 08:44:00,34.9,32.2,29.81,East,90,9.0,15.0,90,0.01,,,0.03,meteohub,2013-03-20 08:44:00,
2013-03-20 08:49:00,34.9,32.5,29.81,ENE,68,7.0,13.0,91,0.01,,,0.03,meteohub,2013-03-20 08:49:00,
2013-03-20 08:55:00,35.1,32.7,29.81,ENE,68,7.0,12.0,91,0.01,,,0.03,meteohub,2013-03-20 08:55:00,
2013-03-20 09:00:00,35.1,32.7,29.81,ENE,68,6.0,11.0,91,0.00,,,0.03,meteohub,2013-03-20 09:00:00,
2013-03-20 09:05:00,35.2,32.9,29.81,East,90,9.0,13.0,91,0.00,,,0.03,meteohub,2013-03-20 09:05:00,
2013-03-20 09:10:00,35.4,33.1,29.81,East,90,11.0,14.0,91,0.00,,,0.03,meteohub,2013-03-20 09:10:00,
2013-03-20 09:15:00,35.6,32.9,29.81,East,90,10.0,14.0,90,0.00,,,0.03,meteohub,2013-03-20 09:15:00,
2013-03-20 09:20:00,35.8,33.1,29.81,East,90,5.0,14.0,90,0.00,,,0.03,meteohub,2013-03-20 09:20:00,
2013-03-20 09:25:00,35.8,33.1,29.81,East,90,10.0,15.0,90,0.00,,,0.03,meteohub,2013-03-20 09:25:00,
2013-03-20 09:30:00,35.8,32.9,29.81,East,90,6.0,15.0,89,0.00,,,0.03,meteohub,2013-03-20 09:30:00,
2013-03-20 09:35:00,35.8,32.9,29.84,ENE,68,15.0,15.0,89,0.00,,,0.03,meteohub,2013-03-20 09:35:00,
2013-03-20 09:41:00,35.6,32.4,29.84,East,90,15.0,16.0,88,0.00,,,0.03,meteohub,2013-03-20 09:41:00,
2013-03-20 09:46:00,35.4,32.0,29.84,East,90,13.0,16.0,87,0.00,,,0.03,meteohub,2013-03-20 09:46:00,
2013-03-20 09:51:00,35.4,32.0,29.84,ENE,68,11.0,19.0,87,0.00,,,0.03,meteohub,2013-03-20 09:51:00,
2013-03-20 09:56:00,35.4,32.0,29.84,East,90,12.0,19.0,87,0.00,,,0.03,meteohub,2013-03-20 09:56:00,
2013-03-20 10:06:00,35.6,32.2,29.84,North,-999,-999.0,15.0,87,0.00,,,0.03,meteohub,2013-03-20 10:06:00,
2013-03-20 10:11:00,35.8,32.4,29.84,East,90,13.0,15.0,87,0.00,,,0.03,meteohub,2013-03-20 10:11:00,
2013-03-20 10:17:00,35.8,32.4,29.84,East,90,11.0,13.0,87,0.00,,,0.03,meteohub,2013-03-20 10:17:00,
2013-03-20 10:22:00,35.6,31.8,29.87,East,90,11.0,15.0,86,0.00,,,0.03,meteohub,2013-03-20 10:22:00,
2013-03-20 10:27:00,35.6,31.8,29.87,East,90,11.0,16.0,86,0.00,,,0.03,meteohub,2013-03-20 10:27:00,
2013-03-20 10:33:00,35.8,32.4,29.87,East,90,9.0,17.0,87,0.00,,,0.03,meteohub,2013-03-20 10:33:00,
2013-03-20 10:38:00,35.8,32.4,29.87,East,90,16.0,17.0,87,0.00,,,0.03,meteohub,2013-03-20 10:38:00,
2013-03-20 10:44:00,35.6,32.2,29.87,East,90,8.0,21.0,87,0.00,,,0.03,meteohub,2013-03-20 10:44:00,
2013-03-20 10:49:00,35.6,32.2,29.87,East,90,15.0,21.0,87,0.00,,,0.03,meteohub,2013-03-20 10:49:00,
2013-03-20 10:54:00,35.8,32.4,29.87,East,90,13.0,21.0,87,0.00,,,0.03,meteohub,2013-03-20 10:54:00,
2013-03-20 10:59:00,36.0,32.5,29.87,NE,45,9.0,17.0,87,0.00,,,0.03,meteohub,2013-03-20 10:59:00,
2013-03-20 11:04:00,35.8,32.4,29.90,East,90,10.0,17.0,87,0.00,,,0.03,meteohub,2013-03-20 11:04:00,
2013-03-20 11:09:00,35.8,32.4,29.90,East,90,8.0,15.0,87,0.00,,,0.03,meteohub,2013-03-20 11:09:00,
2013-03-20 11:14:00,36.1,32.7,29.90,East,90,17.0,19.0,87,0.00,,,0.03,meteohub,2013-03-20 11:14:00,
2013-03-20 11:19:00,36.1,32.7,29.90,East,90,13.0,19.0,87,0.00,,,0.03,meteohub,2013-03-20 11:19:00,
2013-03-20 11:25:00,36.3,32.9,29.90,East,90,11.0,19.0,87,0.00,,,0.03,meteohub,2013-03-20 11:25:00,
2013-03-20 11:30:00,36.5,33.1,29.90,East,90,13.0,18.0,87,0.00,,,0.03,meteohub,2013-03-20 11:30:00,
2013-03-20 11:35:00,36.5,32.7,29.90,ENE,68,13.0,19.0,86,0.00,,,0.03,meteohub,2013-03-20 11:35:00,
2013-03-20 11:40:00,36.1,31.8,29.90,SE,135,13.0,19.0,84,0.00,,,0.03,meteohub,2013-03-20 11:40:00,
2013-03-20 11:45:00,36.0,31.6,29.90,SE,135,19.0,19.0,84,0.00,,,0.03,meteohub,2013-03-20 11:45:00,
2013-03-20 11:50:00,36.1,32.0,29.90,ESE,112,13.0,19.0,85,0.00,,,0.03,meteohub,2013-03-20 11:50:00,
2013-03-20 11:56:00,36.1,32.0,29.90,SE,135,17.0,19.0,85,0.01,,,0.04,meteohub,2013-03-20 11:56:00,
2013-03-20 12:01:00,36.1,32.0,29.90,ESE,112,11.0,19.0,85,0.01,,,0.04,meteohub,2013-03-20 12:01:00,
2013-03-20 12:06:00,36.0,31.6,29.90,East,90,15.0,17.0,84,0.01,,,0.04,meteohub,2013-03-20 12:06:00,
2013-03-20 12:11:00,36.1,31.8,29.90,East,90,13.0,17.0,84,0.01,,,0.04,meteohub,2013-03-20 12:11:00,
2013-03-20 12:17:00,36.1,31.8,29.90,East,90,8.0,17.0,84,0.01,,,0.04,meteohub,2013-03-20 12:17:00,
2013-03-20 12:22:00,36.3,32.0,29.90,East,90,9.0,17.0,84,0.01,,,0.04,meteohub,2013-03-20 12:22:00,
2013-03-20 12:27:00,36.5,32.2,29.90,ESE,112,9.0,17.0,84,0.01,,,0.04,meteohub,2013-03-20 12:27:00,
2013-03-20 12:32:00,36.5,32.2,29.90,East,90,10.0,15.0,84,0.01,,,0.04,meteohub,2013-03-20 12:32:00,
2013-03-20 12:37:00,36.5,31.5,29.90,East,90,11.0,13.0,82,0.01,,,0.04,meteohub,2013-03-20 12:37:00,
2013-03-20 12:43:00,36.7,32.0,29.90,East,90,10.0,14.0,83,0.01,,,0.04,meteohub,2013-03-20 12:43:00,
2013-03-20 12:48:00,36.7,32.0,29.90,East,90,13.0,15.0,83,0.01,,,0.04,meteohub,2013-03-20 12:48:00,
2013-03-20 12:53:00,36.7,31.6,29.90,SE,135,15.0,17.0,82,0.01,,,0.04,meteohub,2013-03-20 12:53:00,
2013-03-20 12:58:00,36.7,31.1,29.90,ESE,112,19.0,19.0,80,0.00,,,0.04,meteohub,2013-03-20 12:58:00,
2013-03-20 13:04:00,36.9,30.7,29.90,East,90,10.0,19.0,78,0.00,,,0.04,meteohub,2013-03-20 13:04:00,
2013-03-20 13:10:00,36.9,30.4,29.90,ESE,112,15.0,19.0,77,0.00,,,0.04,meteohub,2013-03-20 13:10:00,
2013-03-20 13:15:00,37.0,30.6,29.90,ENE,68,6.0,16.0,77,0.00,,,0.04,meteohub,2013-03-20 13:15:00,
2013-03-20 13:20:00,37.4,30.6,29.93,East,90,15.0,16.0,76,0.00,,,0.04,meteohub,2013-03-20 13:20:00,
2013-03-20 13:25:00,37.2,29.7,29.93,East,90,10.0,16.0,74,0.00,,,0.04,meteohub,2013-03-20 13:25:00,
2013-03-20 13:30:00,37.2,29.7,29.93,East,90,14.0,15.0,74,0.00,,,0.04,meteohub,2013-03-20 13:30:00,
2013-03-20 13:35:00,37.0,28.9,29.90,ENE,68,10.0,18.0,72,0.00,,,0.04,meteohub,2013-03-20 13:35:00,
2013-03-20 13:41:00,37.0,28.6,29.90,East,90,14.0,18.0,71,0.00,,,0.04,meteohub,2013-03-20 13:41:00,
2013-03-20 13:47:00,37.2,28.8,29.90,East,90,13.0,18.0,71,0.00,,,0.04,meteohub,2013-03-20 13:47:00,
2013-03-20 13:52:00,37.0,28.6,29.90,East,90,10.0,17.0,71,0.00,,,0.04,meteohub,2013-03-20 13:52:00,
2013-03-20 13:57:00,37.0,28.6,29.90,East,90,11.0,17.0,71,0.00,,,0.04,meteohub,2013-03-20 13:57:00,
2013-03-20 14:02:00,37.0,28.6,29.90,ENE,68,9.0,17.0,71,0.00,,,0.04,meteohub,2013-03-20 14:02:00,
2013-03-20 14:08:00,37.0,28.6,29.90,ENE,68,11.0,14.0,71,0.00,,,0.04,meteohub,2013-03-20 14:08:00,
2013-03-20 14:13:00,37.0,28.6,29.90,ENE,68,9.0,15.0,71,0.00,,,0.04,meteohub,2013-03-20 14:13:00,
2013-03-20 14:18:00,37.0,28.2,29.90,ENE,68,14.0,15.0,70,0.00,,,0.04,meteohub,2013-03-20 14:18:00,
2013-03-20 14:24:00,36.9,27.7,29.90,ENE,68,13.0,15.0,69,0.00,,,0.04,meteohub,2013-03-20 14:24:00,
2013-03-20 14:29:00,36.9,27.0,29.90,ENE,68,11.0,15.0,67,0.00,,,0.04,meteohub,2013-03-20 14:29:00,
2013-03-20 14:34:00,36.9,27.0,29.93,ENE,68,15.0,15.0,67,0.00,,,0.04,meteohub,2013-03-20 14:34:00,
2013-03-20 14:40:00,37.0,27.1,29.93,East,90,11.0,15.0,67,0.00,,,0.04,meteohub,2013-03-20 14:40:00,
2013-03-20 14:46:00,37.0,27.1,29.93,East,90,11.0,15.0,67,0.00,,,0.04,meteohub,2013-03-20 14:46:00,
2013-03-20 14:51:00,37.0,27.5,29.93,East,90,15.0,17.0,68,0.00,,,0.04,meteohub,2013-03-20 14:51:00,
2013-03-20 14:56:00,36.9,27.3,29.93,East,90,15.0,17.0,68,0.00,,,0.04,meteohub,2013-03-20 14:56:00,
2013-03-20 15:01:00,37.0,27.5,29.93,NE,45,12.0,17.0,68,0.00,,,0.04,meteohub,2013-03-20 15:01:00,
2013-03-20 15:06:00,37.0,27.1,29.93,East,90,8.0,17.0,67,0.00,,,0.04,meteohub,2013-03-20 15:06:00,
2013-03-20 15:11:00,36.9,26.6,29.93,ESE,112,15.0,17.0,66,0.00,,,0.04,meteohub,2013-03-20 15:11:00,
2013-03-20 15:16:00,37.0,26.8,29.93,East,90,11.0,15.0,66,0.00,,,0.04,meteohub,2013-03-20 15:16:00,
2013-03-20 15:22:00,36.9,25.9,29.93,East,90,11.0,15.0,64,0.00,,,0.04,meteohub,2013-03-20 15:22:00,
2013-03-20 15:27:00,36.9,25.9,29.93,East,90,15.0,16.0,64,0.00,,,0.04,meteohub,2013-03-20 15:27:00,
2013-03-20 15:32:00,36.9,26.2,29.93,East,90,15.0,16.0,65,0.00,,,0.04,meteohub,2013-03-20 15:32:00,
2013-03-20 15:38:00,36.7,26.1,29.93,East,90,11.0,16.0,65,0.00,,,0.04,meteohub,2013-03-20 15:38:00,
2013-03-20 15:44:00,36.9,26.6,29.93,East,90,15.0,18.0,66,0.00,,,0.04,meteohub,2013-03-20 15:44:00,
2013-03-20 15:49:00,36.9,27.0,29.93,East,90,10.0,18.0,67,0.00,,,0.04,meteohub,2013-03-20 15:49:00,
2013-03-20 15:55:00,36.7,26.4,29.93,East,90,15.0,18.0,66,0.00,,,0.04,meteohub,2013-03-20 15:55:00,
2013-03-20 16:00:00,36.7,26.4,29.93,East,90,11.0,19.0,66,0.00,,,0.04,meteohub,2013-03-20 16:00:00,
2013-03-20 16:05:00,36.3,26.1,29.96,ENE,68,13.0,19.0,66,0.00,,,0.04,meteohub,2013-03-20 16:05:00,
2013-03-20 16:10:00,36.3,25.0,29.96,ENE,68,10.0,15.0,63,0.00,,,0.04,meteohub,2013-03-20 16:10:00,
2013-03-20 16:18:00,36.5,25.2,29.96,ENE,68,13.0,15.0,63,0.00,,,0.04,meteohub,2013-03-20 16:18:00,
2013-03-20 16:24:00,36.5,25.2,29.96,East,90,12.0,15.0,63,0.00,,,0.04,meteohub,2013-03-20 16:24:00,
2013-03-20 16:30:00,36.7,26.1,29.96,ESE,112,14.0,14.0,65,0.00,,,0.04,meteohub,2013-03-20 16:30:00,
2013-03-20 16:35:00,36.5,25.9,29.96,ESE,112,10.0,15.0,65,0.00,,,0.04,meteohub,2013-03-20 16:35:00,
2013-03-20 16:40:00,36.5,25.9,29.96,East,90,17.0,18.0,65,0.00,,,0.04,meteohub,2013-03-20 16:40:00,
2013-03-20 16:45:00,36.5,25.9,29.96,East,90,10.0,18.0,65,0.00,,,0.04,meteohub,2013-03-20 16:45:00,
2013-03-20 16:50:00,36.3,26.1,29.96,NE,45,9.0,17.0,66,0.00,,,0.04,meteohub,2013-03-20 16:50:00,
2013-03-20 16:55:00,36.1,25.9,29.96,East,90,13.0,17.0,66,0.00,,,0.04,meteohub,2013-03-20 16:55:00,
2013-03-20 17:31:00,35.8,24.8,29.99,East,90,5.0,14.0,64,0.00,,,0.04,meteohub,2013-03-20 17:31:00,
2013-03-20 17:37:00,35.8,24.8,29.99,East,90,11.0,14.0,64,0.00,,,0.04,meteohub,2013-03-20 17:37:00,
2013-03-20 17:42:00,35.8,24.8,29.99,East,90,10.0,12.0,64,0.00,,,0.04,meteohub,2013-03-20 17:42:00,
2013-03-20 17:47:00,35.8,25.2,29.99,East,90,6.0,12.0,65,0.00,,,0.04,meteohub,2013-03-20 17:47:00,
2013-03-20 17:52:00,35.6,25.3,29.99,East,90,6.0,12.0,66,0.00,,,0.04,meteohub,2013-03-20 17:52:00,
2013-03-20 17:57:00,35.6,25.3,29.99,East,90,10.0,12.0,66,0.00,,,0.04,meteohub,2013-03-20 17:57:00,
2013-03-20 18:03:00,35.4,24.4,29.99,East,90,10.0,12.0,64,0.00,,,0.04,meteohub,2013-03-20 18:03:00,
2013-03-20 18:09:00,35.4,24.4,29.99,East,90,5.0,13.0,64,0.00,,,0.04,meteohub,2013-03-20 18:09:00,
2013-03-20 18:14:00,35.2,24.3,29.99,ENE,68,9.0,13.0,64,0.00,,,0.04,meteohub,2013-03-20 18:14:00,
2013-03-20 18:19:00,35.1,24.4,29.99,East,90,8.0,13.0,65,0.00,,,0.04,meteohub,2013-03-20 18:19:00,
2013-03-20 18:24:00,35.1,24.8,29.99,ENE,68,5.0,13.0,66,0.00,,,0.04,meteohub,2013-03-20 18:24:00,
2013-03-20 18:29:00,34.9,25.0,29.99,East,90,5.0,13.0,67,0.00,,,0.04,meteohub,2013-03-20 18:29:00,
2013-03-20 18:34:00,34.9,25.0,30.01,East,90,6.0,12.0,67,0.00,,,0.04,meteohub,2013-03-20 18:34:00,
2013-03-20 18:39:00,34.9,25.3,30.01,East,90,4.0,11.0,68,0.00,,,0.04,meteohub,2013-03-20 18:39:00,
2013-03-20 18:45:00,34.9,25.3,30.01,East,90,10.0,11.0,68,0.00,,,0.04,meteohub,2013-03-20 18:45:00,
2013-03-20 18:50:00,34.7,25.5,30.01,East,90,4.0,11.0,69,0.00,,,0.04,meteohub,2013-03-20 18:50:00,
2013-03-20 18:55:00,34.7,25.5,30.01,NE,45,6.0,11.0,69,0.00,,,0.04,meteohub,2013-03-20 18:55:00,
2013-03-20 19:00:00,34.5,25.7,30.01,East,90,5.0,10.0,70,0.00,,,0.04,meteohub,2013-03-20 19:00:00,
2013-03-20 19:06:00,34.5,25.7,30.01,East,90,6.0,9.0,70,0.00,,,0.04,meteohub,2013-03-20 19:06:00,
2013-03-20 19:11:00,34.3,25.5,30.01,ENE,68,6.0,9.0,70,0.00,,,0.04,meteohub,2013-03-20 19:11:00,
2013-03-20 19:16:00,34.2,25.7,30.01,ENE,68,5.0,8.0,71,0.00,,,0.04,meteohub,2013-03-20 19:16:00,
2013-03-20 19:23:00,34.0,25.5,30.01,NE,45,6.0,8.0,71,0.00,,,0.04,meteohub,2013-03-20 19:23:00,
2013-03-20 19:28:00,33.8,25.3,30.01,NE,45,7.0,8.0,71,0.00,,,0.04,meteohub,2013-03-20 19:28:00,
2013-03-20 19:33:00,33.8,25.7,30.01,ENE,68,6.0,8.0,72,0.00,,,0.04,meteohub,2013-03-20 19:33:00,
2013-03-20 19:38:00,33.8,26.1,30.01,ENE,68,4.0,8.0,73,0.00,,,0.04,meteohub,2013-03-20 19:38:00,
2013-03-20 19:44:00,33.8,26.1,30.01,ENE,68,6.0,8.0,73,0.00,,,0.04,meteohub,2013-03-20 19:44:00,
2013-03-20 19:49:00,33.8,26.1,30.01,NE,45,4.0,8.0,73,0.00,,,0.04,meteohub,2013-03-20 19:49:00,
2013-03-20 19:54:00,33.8,26.1,30.01,NE,45,6.0,8.0,73,0.00,,,0.04,meteohub,2013-03-20 19:54:00,
2013-03-20 20:00:00,33.8,26.4,30.01,NE,45,6.0,8.0,74,0.00,,,0.04,meteohub,2013-03-20 20:00:00,
2013-03-20 20:05:00,33.8,26.4,30.04,NE,45,8.0,8.0,74,0.00,,,0.04,meteohub,2013-03-20 20:05:00,
2013-03-20 20:10:00,33.8,26.4,30.04,ENE,68,4.0,8.0,74,0.00,,,0.04,meteohub,2013-03-20 20:10:00,
2013-03-20 20:16:00,33.8,26.4,30.04,ENE,68,7.0,8.0,74,0.00,,,0.04,meteohub,2013-03-20 20:16:00,
2013-03-20 20:21:00,34.0,27.0,30.04,NE,45,5.0,9.0,75,0.00,,,0.04,meteohub,2013-03-20 20:21:00,
2013-03-20 20:26:00,34.0,27.3,30.04,NE,45,8.0,9.0,76,0.00,,,0.04,meteohub,2013-03-20 20:26:00,
2013-03-20 20:31:00,33.8,27.1,30.04,NE,45,6.0,9.0,76,0.00,,,0.04,meteohub,2013-03-20 20:31:00,
2013-03-20 20:36:00,33.8,27.1,30.04,ENE,68,6.0,9.0,76,0.00,,,0.04,meteohub,2013-03-20 20:36:00,
2013-03-20 21:31:00,33.3,27.5,30.04,East,90,10.0,13.0,79,0.00,,,0.04,meteohub,2013-03-20 21:31:00,
2013-03-20 21:37:00,33.1,27.3,30.04,East,90,5.0,13.0,79,0.00,,,0.04,meteohub,2013-03-20 21:37:00,
2013-03-20 21:43:00,33.1,27.3,30.04,ENE,68,8.0,13.0,79,0.00,,,0.04,meteohub,2013-03-20 21:43:00,
2013-03-20 21:48:00,33.1,27.3,30.07,ENE,68,6.0,13.0,79,0.00,,,0.04,meteohub,2013-03-20 21:48:00,
2013-03-20 21:53:00,33.1,27.3,30.07,East,90,3.0,10.0,79,0.00,,,0.04,meteohub,2013-03-20 21:53:00,
2013-03-20 21:58:00,33.1,27.0,30.07,East,90,4.0,10.0,78,0.00,,,0.04,meteohub,2013-03-20 21:58:00,
2013-03-20 22:04:00,33.1,27.0,30.04,East,90,5.0,8.0,78,0.00,,,0.04,meteohub,2013-03-20 22:04:00,
2013-03-20 22:09:00,33.1,27.0,30.04,East,90,3.0,7.0,78,0.00,,,0.04,meteohub,2013-03-20 22:09:00,
2013-03-20 22:14:00,33.1,27.0,30.04,East,90,5.0,7.0,78,0.00,,,0.04,meteohub,2013-03-20 22:14:00,
2013-03-20 22:19:00,33.1,27.0,30.04,East,90,3.0,6.0,78,0.00,,,0.04,meteohub,2013-03-20 22:19:00,
2013-03-20 22:24:00,33.1,27.0,30.04,East,90,5.0,5.0,78,0.00,,,0.04,meteohub,2013-03-20 22:24:00,
2013-03-20 22:29:00,33.1,27.3,30.04,ESE,112,6.0,7.0,79,0.00,,,0.04,meteohub,2013-03-20 22:29:00,
2013-03-20 22:34:00,33.1,27.3,30.07,East,90,5.0,9.0,79,0.00,,,0.04,meteohub,2013-03-20 22:34:00,
2013-03-20 22:40:00,33.3,27.5,30.07,ENE,68,6.0,9.0,79,0.00,,,0.04,meteohub,2013-03-20 22:40:00,
2013-03-20 22:45:00,33.3,27.5,30.07,East,90,6.0,8.0,79,0.00,,,0.04,meteohub,2013-03-20 22:45:00,
2013-03-20 22:50:00,33.3,27.5,30.07,East,90,8.0,9.0,79,0.00,,,0.04,meteohub,2013-03-20 22:50:00,
2013-03-20 22:55:00,33.3,27.5,30.07,East,90,4.0,9.0,79,0.00,,,0.04,meteohub,2013-03-20 22:55:00,
2013-03-20 23:01:00,33.3,27.5,30.07,East,90,5.0,9.0,79,0.00,,,0.04,meteohub,2013-03-20 23:01:00,
2013-03-20 23:06:00,33.3,27.5,30.07,East,90,6.0,8.0,79,0.00,,,0.04,meteohub,2013-03-20 23:06:00,
2013-03-20 23:11:00,33.3,27.5,30.07,East,90,6.0,9.0,79,0.00,,,0.04,meteohub,2013-03-20 23:11:00,
2013-03-20 23:16:00,33.3,27.5,30.07,East,90,6.0,9.0,79,0.00,,,0.04,meteohub,2013-03-20 23:16:00,
2013-03-20 23:22:00,33.3,27.5,30.07,East,90,6.0,9.0,79,0.00,,,0.04,meteohub,2013-03-20 23:22:00,
2013-03-20 23:27:00,33.3,27.5,30.07,East,90,4.0,6.0,79,0.00,,,0.04,meteohub,2013-03-20 23:27:00,
2013-03-20 23:32:00,33.3,27.5,30.07,East,90,6.0,7.0,79,0.00,,,0.04,meteohub,2013-03-20 23:32:00,
2013-03-20 23:37:00,33.1,27.3,30.07,East,90,6.0,7.0,79,0.00,,,0.04,meteohub,2013-03-20 23:37:00,
2013-03-20 23:43:00,33.1,27.3,30.07,ENE,68,4.0,8.0,79,0.00,,,0.04,meteohub,2013-03-20 23:43:00,
2013-03-20 23:48:00,33.1,27.0,30.04,East,90,4.0,8.0,78,0.00,,,0.04,meteohub,2013-03-20 23:48:00,
2013-03-20 23:53:00,32.9,26.8,30.04,ENE,68,4.0,8.0,78,0.00,,,0.04,meteohub,2013-03-20 23:53:00,
2013-03-20 23:59:00,32.7,26.6,30.04,ENE,68,5.0,8.0,78,0.00,,,0.04,meteohub,2013-03-20 23:59:00,